Location: Tucson
(32.2217°N, 110.9265°W)
Time: 18:09:06
(UTC-07:00)

N. Korean satellite - Pass Details

Date: 01 October 2021
Orbit: 450 x 495 km, 97.3° (Epoch: 22 October)

Event Time Altitude Azimuth Distance (km) Brightness Sun altitude
Rises 04:45:16 0° 32° (NNE) 2,553 10.8 -20.4°
Reaches altitude 10° 04:47:54 10° 53° (NE) 1,675 10.2 -19.8°
Maximum altitude 04:50:19 17° 95° (E) 1,300 9.7 -19.3°
Drops below altitude 10° 04:52:45 10° 138° (SE) 1,679 9.7 -18.8°
Sets 04:55:23 0° 159° (SSE) 2,560 10.4 -18.2°
